GW4034 Weather Reports


Display with metric or nautical units.
time (UTC)temp
F
wind
direction
speed
MPH
gust
MPH
rain 1hr
in
rain 24hr
in
rain mn
in
humidity
%
barometer
mb
20260905012732 72 219 0.0 0.0 0.00 0.04 0.04 76 1015.4
20260905012227 72 221 0.0 0.0 0.00 0.04 0.04 76 1015.4
20260905011725 72 222 0.0 0.0 0.00 0.04 0.04 74 1015.2
20260905011220 73 223 0.0 0.0 0.00 0.04 0.04 74 1015.4
20260905010720 73 228 0.0 0.0 0.00 0.04 0.04 73 1015.5
20260905010215 73 245 0.0 0.0 0.00 0.04 0.04 73 1015.5
20260905005711 73 230 0.0 1.0 0.00 0.04 0.04 73 1015.5
20260905005206 73 239 0.0 0.0 0.00 0.04 0.04 74 1015.5
20260905004701 73 235 0.0 0.0 0.00 0.04 0.04 74 1015.2
20260905004156 73 231 0.0 0.0 0.00 0.04 0.04 75 1015.3
20260905003651 73 244 0.0 0.0 0.00 0.04 0.04 74 1015.4
20260905003147 73 233 0.0 0.0 0.00 0.04 0.04 74 1015.1
20260905002642 74 227 0.0 0.0 0.00 0.04 0.04 73 1015.1
20260905002137 74 224 0.0 0.0 0.00 0.04 0.04 73 1015.3
20260905001633 73 224 0.0 0.0 0.00 0.04 0.04 75 1015.2
20260905001132 73 225 0.0 0.0 0.00 0.04 0.04 75 1015.2
20260905000627 74 222 0.0 0.0 0.00 0.04 0.04 74 1014.9
20260905000123 74 223 0.0 0.0 0.00 0.04 0.04 74 1015.0
20260904235623 74 224 0.0 0.0 0.00 0.04 0.04 73 1015.2
20260904235122 75 228 0.0 0.0 0.00 0.04 0.04 73 1015.0
20260904234617 75 223 0.0 0.0 0.00 0.04 0.04 71 1015.1
20260904234113 76 222 0.0 0.0 0.00 0.04 0.04 70 1015.1
20260904233609 76 223 0.0 0.0 0.00 0.04 0.04 69 1015.1
20260904233104 77 221 0.0 0.0 0.00 0.04 0.04 68 1014.9
20260904232600 78 227 0.0 0.0 0.00 0.04 0.04 66 1015.1
20260904232056 78 224 0.0 0.0 0.00 0.04 0.04 65 1014.9
20260904231552 78 226 0.0 0.0 0.00 0.04 0.04 64 1014.8
20260904231047 79 223 0.0 0.0 0.00 0.04 0.04 63 1014.7
20260904230546 79 268 1.0 2.0 0.00 0.04 0.04 63 1014.8
20260904230042 79 249 1.0 1.0 0.00 0.04 0.04 63 1014.8
20260904225539 80 226 1.0 2.0 0.00 0.04 0.04 63 1014.7
20260904225039 80 220 0.0 0.0 0.00 0.04 0.04 64 1014.8
20260904224534 80 257 3.0 3.0 0.00 0.04 0.04 62 1015.0
20260904224034 80 261 1.0 2.0 0.00 0.04 0.04 62 1014.9
20260904223533 81 240 0.0 0.0 0.00 0.04 0.04 61 1014.8
20260904223029 83 241 1.0 1.0 0.00 0.04 0.04 59 1014.9
20260904222524 83 249 2.0 2.0 0.00 0.04 0.04 59 1014.9
20260904222019 83 276 0.0 1.0 0.00 0.04 0.04 59 1014.9
20260904221514 83 295 0.0 1.0 0.00 0.04 0.04 58 1014.7
20260904221009 82 233 1.0 1.0 0.00 0.04 0.04 59 1015.0
20260904220509 83 235 1.0 1.0 0.00 0.04 0.04 58 1014.6
20260904220005 83 0 3.0 4.0 0.00 0.04 0.04 57 1014.7
20260904215459 83 187 2.0 3.0 0.00 0.04 0.04 58 1014.6
20260904214954 83 275 2.0 3.0 0.00 0.04 0.04 58 1014.5
20260904214450 83 265 1.0 2.0 0.00 0.04 0.04 58 1014.7
20260904213944 84 244 1.0 1.0 0.00 0.04 0.04 58 1014.7
20260904213438 83 257 5.0 6.0 0.00 0.04 0.04 58 1014.6
20260904212935 84 330 3.0 3.0 0.00 0.04 0.04 57 1014.5
20260904212434 84 281 2.0 3.0 0.00 0.04 0.04 57 1014.5
20260904211930 83 321 3.0 3.0 0.00 0.04 0.04 58 1014.6
20260904211429 83 253 0.0 0.0 0.00 0.04 0.04 58 1014.4
20260904210925 83 26 2.0 3.0 0.00 0.04 0.04 57 1014.5
20260904210424 84 343 1.0 2.0 0.00 0.04 0.04 58 1014.7
20260904205920 85 224 2.0 3.0 0.00 0.04 0.04 55 1014.5
20260904205415 85 246 2.0 3.0 0.00 0.04 0.04 56 1014.6
20260904204912 84 304 3.0 4.0 0.00 0.04 0.04 55 1014.8
20260904204408 84 327 2.0 3.0 0.00 0.04 0.04 56 1014.9
20260904203904 83 226 1.0 1.0 0.00 0.04 0.04 57 1015.0
20260904203400 83 337 4.0 6.0 0.00 0.04 0.04 57 1015.0
20260904202856 82 228 3.0 4.0 0.00 0.04 0.04 57 1015.1
20260904202351 83 274 2.0 2.0 0.00 0.04 0.04 60 1015.0
20260904201847 84 308 2.0 2.0 0.00 0.04 0.04 57 1014.9
20260904201342 84 253 1.0 1.0 0.00 0.04 0.04 56 1015.0
20260904200837 84 212 3.0 4.0 0.00 0.04 0.04 56 1015.0
20260904200335 84 237 1.0 1.0 0.00 0.04 0.04 56 1015.0
20260904195830 84 331 1.0 2.0 0.00 0.04 0.04 56 1015.0
20260904195329 85 329 1.0 2.0 0.00 0.04 0.04 56 1014.9
20260904194823 84 284 3.0 3.0 0.00 0.04 0.04 56 1014.9
20260904194323 85 242 3.0 4.0 0.00 0.04 0.04 58 1015.0
20260904193818 85 338 4.0 4.0 0.00 0.04 0.04 56 1014.8
20260904193314 85 246 1.0 1.0 0.00 0.04 0.04 55 1014.8
20260904192809 85 232 1.0 2.0 0.00 0.04 0.04 56 1014.9
20260904192306 85 293 2.0 2.0 0.00 0.04 0.04 55 1015.1
20260904191801 85 299 1.0 2.0 0.00 0.04 0.04 58 1015.2
20260904191257 85 246 2.0 2.0 0.00 0.04 0.04 55 1015.2
20260904190753 84 294 0.0 1.0 0.00 0.04 0.04 58 1015.2
20260904190249 84 352 2.0 3.0 0.00 0.04 0.04 57 1015.5
20260904185745 84 104 0.0 0.0 0.00 0.04 0.04 60 1015.5
20260904185240 84 332 3.0 6.0 0.00 0.04 0.04 59 1015.7
20260904184738 83 294 4.0 4.0 0.00 0.04 0.04 60 1015.6
20260904184235 83 39 1.0 2.0 0.00 0.04 0.04 60 1015.5
20260904183730 83 222 0.0 1.0 0.00 0.04 0.04 65 1015.5
20260904183225 82 19 1.0 3.0 0.00 0.04 0.04 63 1015.6
20260904182720 83 245 1.0 2.0 0.00 0.04 0.04 61 1015.6
20260904182215 84 174 1.0 1.0 0.00 0.04 0.04 61 1015.7
20260904181711 84 315 7.0 9.0 0.00 0.04 0.04 59 1015.6
20260904181210 82 256 3.0 3.0 0.00 0.04 0.04 61 1015.5
20260904180706 82 333 1.0 1.0 0.00 0.04 0.04 64 1015.7
20260904180201 82 302 2.0 2.0 0.00 0.04 0.04 64 1015.6
20260904175700 81 267 1.0 1.0 0.00 0.04 0.04 65 1015.4
20260904175159 81 353 1.0 2.0 0.00 0.04 0.04 65 1015.6
20260904174653 82 32 2.0 3.0 0.00 0.04 0.04 63 1015.5
20260904174149 84 134 0.0 1.0 0.00 0.04 0.04 64 1015.7
20260904173645 83 253 3.0 3.0 0.00 0.04 0.04 62 1015.5
20260904173140 83 249 7.0 11.0 0.00 0.04 0.04 63 1015.4
20260904172637 81 286 2.0 3.0 0.00 0.04 0.04 64 1015.5
20260904172135 82 21 2.0 3.0 0.00 0.04 0.04 63 1015.4
20260904171631 83 126 1.0 1.0 0.00 0.04 0.04 63 1015.4
20260904171126 84 280 2.0 3.0 0.00 0.04 0.04 63 1015.5
20260904170622 83 268 1.0 1.0 0.00 0.04 0.04 66 1015.5
20260904170118 83 327 3.0 4.0 0.00 0.04 0.04 64 1015.5
20260904165616 82 278 1.0 2.0 0.00 0.04 0.04 68 1015.8
20260904165115 82 222 0.0 1.0 0.00 0.04 0.04 67 1015.8
20260904164610 81 331 1.0 1.0 0.00 0.04 0.04 67 1015.8
20260904164106 81 269 1.0 2.0 0.00 0.04 0.04 67 1015.7
20260904163601 81 338 6.0 8.0 0.00 0.04 0.04 66 1015.5
20260904163056 82 170 2.0 4.0 0.00 0.04 0.04 63 1015.4
20260904162556 82 217 4.0 6.0 0.00 0.04 0.04 62 1015.6
20260904162051 82 353 2.0 3.0 0.00 0.04 0.04 64 1015.7
20260904161545 83 21 3.0 3.0 0.00 0.04 0.04 63 1015.6
20260904161041 82 326 3.0 4.0 0.00 0.04 0.04 64 1015.8
20260904160536 82 260 2.0 2.0 0.00 0.04 0.04 65 1015.8
20260904160032 82 270 1.0 2.0 0.00 0.04 0.04 65 1015.8
20260904155531 82 71 3.0 6.0 0.00 0.04 0.04 65 1015.7
20260904155026 82 254 5.0 7.0 0.00 0.04 0.04 64 1015.8
20260904154520 82 308 4.0 6.0 0.00 0.04 0.04 66 1015.7
20260904154015 82 23 5.0 6.0 0.00 0.04 0.04 65 1015.8
20260904153515 82 182 1.0 1.0 0.00 0.04 0.04 69 1016.0
20260904153012 81 294 5.0 9.0 0.00 0.04 0.04 67 1015.8
20260904152507 82 324 2.0 3.0 0.00 0.04 0.04 69 1016.0
20260904152002 81 13 4.0 6.0 0.00 0.04 0.04 69 1015.9
20260904151456 80 58 5.0 9.0 0.00 0.04 0.04 70 1016.2
20260904150951 81 5 6.0 9.0 0.00 0.04 0.04 70 1015.9
20260904150446 81 263 3.0 4.0 0.00 0.04 0.04 70 1015.9
20260904145944 81 109 0.0 0.0 0.00 0.04 0.04 72 1016.1
20260904145440 80 21 1.0 2.0 0.00 0.04 0.04 72 1016.1
20260904144935 80 282 4.0 4.0 0.00 0.04 0.04 71 1016.1
20260904144431 80 328 4.0 6.0 0.00 0.04 0.04 72 1016.0
20260904143926 80 349 3.0 3.0 0.00 0.04 0.04 72 1016.0
20260904143423 80 1 4.0 6.0 0.00 0.04 0.04 72 1016.0
20260904142919 80 305 3.0 4.0 0.00 0.04 0.04 74 1016.2
20260904142416 80 103 2.0 2.0 0.00 0.04 0.04 75 1016.1
20260904141914 80 267 0.0 1.0 0.00 0.04 0.04 74 1016.0
20260904141410 79 232 2.0 3.0 0.00 0.04 0.04 76 1016.1
20260904140906 79 216 2.0 3.0 0.00 0.04 0.04 76 1016.2
20260904140401 79 9 2.0 2.0 0.00 0.04 0.04 77 1016.1
20260904135900 80 215 2.0 2.0 0.00 0.04 0.04 77 1016.0
20260904135355 79 342 2.0 3.0 0.00 0.04 0.04 76 1015.9
20260904134851 79 209 0.0 1.0 0.00 0.04 0.04 79 1016.0
20260904134350 78 278 3.0 4.0 0.00 0.04 0.04 78 1015.8
20260904133845 78 1 3.0 3.0 0.00 0.04 0.04 79 1016.0
20260904133341 78 16 1.0 2.0 0.00 0.04 0.04 81 1015.8
20260904132840 77 212 0.0 0.0 0.00 0.04 0.04 82 1015.8
20260904132335 78 294 2.0 3.0 0.00 0.04 0.04 81 1016.1
20260904131830 77 290 0.0 1.0 0.00 0.04 0.04 82 1015.9
20260904131326 77 158 0.0 1.0 0.00 0.04 0.04 83 1015.9
20260904130825 76 63 2.0 3.0 0.00 0.04 0.04 83 1015.8
20260904130324 76 63 2.0 3.0 0.00 0.04 0.04 83 1015.8
20260904125820 76 237 2.0 3.0 0.00 0.04 0.04 83 1016.0
20260904125316 75 353 1.0 1.0 0.00 0.04 0.04 84 1016.1
20260904124815 75 349 2.0 3.0 0.00 0.04 0.04 84 1016.0
20260904124312 75 350 2.0 3.0 0.00 0.04 0.04 84 1015.8
20260904123807 75 19 3.0 3.0 0.00 0.04 0.04 84 1016.1
20260904123302 75 357 2.0 3.0 0.00 0.04 0.04 85 1016.2
20260904122757 74 237 0.0 1.0 0.00 0.04 0.04 86 1016.1
20260904122256 74 11 4.0 4.0 0.00 0.04 0.04 86 1015.9
20260904121752 74 312 2.0 2.0 0.00 0.04 0.04 87 1016.0
20260904121248 73 202 0.0 0.0 0.00 0.04 0.04 88 1015.9
20260904120744 73 28 2.0 3.0 0.00 0.04 0.04 88 1016.0
20260904120240 73 233 0.0 0.0 0.00 0.04 0.04 89 1015.9
20260904115735 73 236 0.0 0.0 0.00 0.04 0.04 89 1016.0
20260904115230 72 326 1.0 3.0 0.00 0.04 0.04 90 1016.1
20260904114725 72 306 1.0 2.0 0.00 0.04 0.04 91 1016.0
20260904114224 71 250 2.0 2.0 0.00 0.04 0.04 92 1016.0
20260904113720 71 11 1.0 1.0 0.00 0.04 0.04 93 1015.8
20260904113219 71 235 0.0 1.0 0.00 0.04 0.04 94 1015.7
20260904112714 71 234 1.0 1.0 0.00 0.04 0.04 94 1015.8
20260904112209 70 222 0.0 0.0 0.00 0.04 0.04 94 1015.8
20260904111705 70 218 0.0 0.0 0.00 0.04 0.04 94 1015.7
20260904111201 70 231 1.0 2.0 0.00 0.04 0.04 94 1015.5
20260904110656 70 228 0.0 0.0 0.00 0.04 0.04 94 1015.5
20260904110155 70 225 0.0 0.0 0.00 0.04 0.04 94 1015.4
20260904105650 70 220 0.0 0.0 0.00 0.04 0.04 94 1015.5
20260904105145 70 270 1.0 1.0 0.00 0.04 0.04 95 1015.6
20260904104641 70 309 0.0 1.0 0.00 0.04 0.04 95 1015.5
20260904104136 70 337 2.0 3.0 0.00 0.04 0.04 95 1015.3
20260904103632 70 349 2.0 2.0 0.00 0.04 0.04 95 1015.3
20260904103127 70 241 1.0 1.0 0.00 0.04 0.04 95 1015.3
20260904102624 71 290 2.0 2.0 0.00 0.04 0.04 95 1015.2
20260904102118 71 318 0.0 1.0 0.00 0.04 0.04 95 1015.1
20260904101615 71 247 1.0 1.0 0.00 0.04 0.04 95 1015.0
20260904101110 71 230 0.0 0.0 0.00 0.04 0.04 95 1015.2
20260904100606 71 227 0.0 0.0 0.00 0.04 0.04 95 1015.1
20260904100101 71 229 0.0 0.0 0.00 0.04 0.04 95 1014.8
20260904095555 71 229 0.0 0.0 0.00 0.04 0.04 95 1014.8
20260904095050 72 235 0.0 0.0 0.00 0.04 0.04 95 1014.8
20260904094545 72 232 0.0 0.0 0.00 0.04 0.04 95 1014.7
20260904094041 72 246 1.0 1.0 0.00 0.04 0.04 95 1014.7
20260904093538 72 233 0.0 0.0 0.00 0.04 0.04 95 1014.7
20260904093037 72 235 0.0 0.0 0.00 0.04 0.04 95 1014.7
20260904092533 72 227 0.0 0.0 0.00 0.04 0.04 95 1014.5
20260904092029 72 244 0.0 1.0 0.00 0.04 0.04 95 1014.5
20260904091525 72 225 0.0 0.0 0.00 0.04 0.04 95 1014.3
20260904091024 73 241 0.0 0.0 0.00 0.04 0.04 95 1014.7
20260904090520 73 226 0.0 0.0 0.00 0.04 0.04 95 1014.7
20260904090016 73 252 1.0 1.0 0.00 0.04 0.04 95 1014.9
20260904085511 73 235 0.0 0.0 0.00 0.04 0.04 95 1014.8
20260904085010 73 226 0.0 0.0 0.00 0.04 0.04 95 1014.6
20260904084506 73 222 0.0 1.0 0.00 0.04 0.04 95 1014.6
20260904084002 73 219 0.0 0.0 0.00 0.04 0.04 95 1014.9
20260904083458 73 235 0.0 0.0 0.00 0.04 0.04 95 1014.7
20260904082954 73 236 0.0 0.0 0.00 0.04 0.04 95 1014.5
20260904082449 73 230 0.0 0.0 0.00 0.04 0.04 95 1014.7
20260904081943 73 217 0.0 0.0 0.00 0.04 0.04 95 1014.4
20260904081438 73 215 0.0 1.0 0.00 0.04 0.04 95 1014.7
20260904080934 73 204 0.0 0.0 0.00 0.04 0.04 95 1014.4
20260904080429 74 198 0.0 0.0 0.00 0.04 0.04 95 1014.7
20260904075925 74 210 0.0 0.0 0.00 0.04 0.04 95 1014.7
20260904075421 73 217 0.0 0.0 0.00 0.04 0.04 95 1014.6
20260904074920 73 218 0.0 0.0 0.00 0.04 0.04 94 1014.8
20260904074415 73 231 0.0 0.0 0.00 0.04 0.04 94 1014.6
20260904073911 74 232 0.0 0.0 0.00 0.04 0.04 94 1014.8
20260904073406 74 231 0.0 0.0 0.00 0.04 0.04 94 1014.5
20260904072902 74 274 1.0 1.0 0.00 0.04 0.04 94 1014.5
20260904072356 74 223 0.0 0.0 0.00 0.04 0.04 94 1014.5
20260904071852 74 223 0.0 0.0 0.00 0.04 0.04 94 1014.5
20260904071348 74 223 0.0 0.0 0.00 0.04 0.04 94 1014.4
20260904070842 74 217 0.0 0.0 0.00 0.04 0.04 94 1014.3
20260904070341 74 230 0.0 0.0 0.00 0.04 0.04 94 1014.7
20260904065835 74 220 0.0 1.0 0.00 0.04 0.04 94 1014.5
20260904065332 74 222 0.0 0.0 0.00 0.04 0.04 94 1014.3
20260904064826 74 228 0.0 0.0 0.00 0.04 0.04 94 1014.6
20260904064323 74 223 0.0 0.0 0.00 0.04 0.04 94 1014.8
20260904063819 74 223 0.0 0.0 0.00 0.04 0.04 94 1014.9
20260904063314 74 223 0.0 0.0 0.00 0.04 0.04 94 1014.9
20260904062809 74 228 0.0 0.0 0.00 0.04 0.04 93 1015.2
20260904062306 74 233 0.0 0.0 0.00 0.04 0.04 93 1015.3
20260904061801 74 229 0.0 0.0 0.00 0.04 0.04 93 1015.2
20260904061257 74 205 0.0 0.0 0.00 0.04 0.04 93 1015.1
20260904060754 74 217 0.0 0.0 0.00 0.04 0.04 93 1015.0
20260904060249 74 226 0.0 0.0 0.12 0.04 0.04 93 1015.1
20260904055744 74 219 0.0 1.0 0.12 0.04 0.04 93 1015.1
20260904055239 74 213 0.0 0.0 0.00 0.02 0.02 93 1015.6
20260904054734 74 239 0.0 0.0 0.00 0.02 0.02 93 1015.6
20260904054230 74 220 0.0 0.0 0.00 0.02 0.02 92 1015.5
20260904053731 74 222 0.0 0.0 0.00 0.02 0.02 92 1015.6
20260904053225 74 223 0.0 0.0 0.00 0.02 0.02 92 1015.6
20260904052721 74 230 0.0 0.0 0.07 0.02 0.02 92 1015.8
20260904052217 74 234 0.0 0.0 0.12 0.02 0.02 92 1015.7
20260904051714 74 209 0.0 0.0 0.12 0.02 0.02 92 1015.7
20260904051208 74 328 5.0 7.0 0.00 0.00 0.00 92 1016.0
20260904050704 74 243 0.0 0.0 0.00 0.00 0.00 92 1015.6
20260904050200 75 226 0.0 0.0 0.00 0.00 0.00 91 1015.5
20260904045659 75 227 0.0 0.0 0.00 0.00 0.00 91 1015.6
20260904045154 75 223 0.0 0.0 0.00 0.00 0.00 91 1015.6
20260904044649 75 211 0.0 0.0 0.00 0.00 0.00 91 1015.5
20260904044146 75 260 0.0 0.0 0.00 0.00 0.00 90 1015.8
20260904043642 75 234 0.0 0.0 0.00 0.00 0.00 90 1016.2
20260904043137 75 197 0.0 0.0 0.00 0.00 0.00 90 1016.0
20260904042633 75 230 0.0 0.0 0.00 0.00 0.00 90 1016.2
20260904042128 74 228 0.0 0.0 0.00 0.00 0.00 91 1016.3
20260904041624 74 223 0.0 0.0 0.00 0.00 0.00 91 1016.1
20260904041120 74 226 0.0 0.0 0.00 0.00 0.00 91 1016.3
20260904040616 74 228 0.0 0.0 0.00 0.00 0.00 91 1016.5
20260904040112 74 231 0.0 0.0 0.00 0.18 0.18 91 1016.2
20260904035607 74 228 0.0 0.0 0.00 0.18 0.18 91 1016.1
20260904035107 74 227 0.0 0.0 0.00 0.18 0.18 91 1016.0
20260904034601 74 227 0.0 0.0 0.00 0.18 0.18 91 1015.9
20260904034057 74 229 0.0 0.0 0.00 0.18 0.18 91 1016.1
20260904033553 74 229 0.0 0.0 0.00 0.18 0.18 90 1016.1
20260904033050 74 230 0.0 0.0 0.00 0.18 0.18 90 1016.0
20260904032545 74 235 0.0 0.0 0.00 0.18 0.18 90 1016.1
20260904032044 74 213 0.0 0.0 0.00 0.18 0.18 90 1016.0
20260904031543 75 211 0.0 0.0 0.00 0.18 0.18 90 1016.0
20260904031040 75 211 0.0 0.0 0.00 0.18 0.18 90 1016.2
20260904030536 75 225 0.0 0.0 0.00 0.18 0.18 89 1016.1
20260904030031 75 226 0.0 0.0 0.00 0.18 0.18 89 1016.2
20260904025526 75 226 0.0 0.0 0.00 0.18 0.18 89 1016.2
20260904025021 75 225 0.0 0.0 0.00 0.18 0.18 89 1016.3
20260904024516 75 229 0.0 0.0 0.00 0.18 0.18 89 1016.4
20260904024012 75 223 0.0 0.0 0.00 0.18 0.18 89 1016.5
20260904023508 75 209 0.0 0.0 0.00 0.18 0.18 89 1016.6
20260904023003 75 207 0.0 0.0 0.00 0.18 0.18 89 1016.5
20260904022458 75 219 0.0 0.0 0.00 0.18 0.18 89 1016.7
20260904021955 75 222 0.0 0.0 0.00 0.18 0.18 89 1016.5
20260904021451 75 234 0.0 0.0 0.00 0.18 0.18 89 1016.7
20260904020950 75 226 0.0 0.0 0.00 0.18 0.18 89 1016.8
20260904020446 75 232 0.0 0.0 0.00 0.18 0.18 89 1016.8
20260904015944 75 227 0.0 0.0 0.00 0.18 0.18 89 1016.9
20260904015440 75 230 0.0 0.0 0.00 0.18 0.18 89 1016.7
20260904014938 75 227 0.0 0.0 0.00 0.18 0.18 88 1017.0
20260904014432 75 227 0.0 0.0 0.00 0.18 0.18 88 1016.9
20260904013929 75 231 0.0 0.0 0.00 0.18 0.18 88 1017.0
20260904013419 75 231 0.0 0.0 0.00 0.18 0.18 88 1016.7
20260904012915 75 223 0.0 0.0 0.00 0.18 0.18 88 1016.8